Regional Weather Roundup
Issued by NWS

Home | Current Version | Previous Version | Text Only | Print | Product List | Glossary On
Versions: 1 2 3 4 5 6 7 8 9 10 11 12 13 14 15 16 17 18 19 20 21 22 23 24 25 26 27 28 29 30 31 32 33 34 35 36 37 38 39 40 41 42 43 44 45 46 47 48 49 50
000
ASUS45 KTFX 231119
RWRMT
MONTANA HOURLY WEATHER ROUNDUP
NATIONAL WEATHER SERVICE GREAT FALLS MT
519 AM MDT WED JUL 23 2014

NOTE: "FAIR" INDICATES FEW OR NO CLOUDS BELOW 12000 FEET WITH NO
SIGNIFICANT WEATHER AND/OR OBSTRUCTIONS TO VISIBILITY.

* THESE STATIONS ARE NOT UNDER NWS QUALITY CONTROL. THEY DO NOT
   REPORT WEATHER SUCH AS PRECIPITATION OR FOG.

MTZ001>007-043-231200-
WEST OF THE DIVIDE
CITY           SKY/WX    TMP DP  RH WIND       PRES   REMARKS
KALISPELL      LGT RAIN  57  54  90 NE8       30.16R
MISSOULA       LGT RAIN  64  55  73 E7        30.22R
BUTTE          CLOUDY    61  48  62 N12       30.27R
MULLAN PASS    CLOUDY    50  46  86 S7        30.27F
* ESSEX        N/A       55  51  86 S9G14      N/A
* LINCOLN      N/A       53  52  96 SW3        N/A
* LOOKOUT PASS N/A       53  53 100 S4         N/A
* POLSON       N/A       58  53  84 SW2        N/A
* RONAN APT    CLOUDY    57  55  93 E6         N/A
* SEELEY LAKE  N/A       53  51  93 SE2        N/A
* THOMP F APT  CLOUDY    63  33  33 N5G10      N/A
* YAAK HILL    N/A       58  55  90 SW2        N/A
$$

MTZ008-052>055-231200-
SOUTHWEST MONTANA
CITY           SKY/WX    TMP DP  RH WIND       PRES   REMARKS
BOZEMAN        PTCLDY    54  48  80 SE3       30.15F
DILLON         MOCLDY    57  48  72 E12       30.20F
W YELLOWSTONE  MOCLDY    41  41 100 CALM      30.30S
* THREE FORKS  PTCLDY    55  28  35 N/A        N/A
* BOULDER HILL N/A       58  46  65 S16        N/A
* MONIDA PASS  N/A       51  37  59 W4         N/A
* RAYNOLDS PAS N/A       51  32  48 SE2        N/A
* WHITEHALL    N/A       63  49  60 E4G11      N/A
* WISE RIVER   N/A       59  50  72 NW13G24    N/A
$$

MTZ009>010-012-014-046-048-049-054-231200-
EAST SLOPES AND CENTRAL MONTANA
CITY           SKY/WX    TMP DP  RH WIND       PRES   REMARKS
CUT BANK       MOCLDY    54  52  93 N7        30.15F
GREAT FALLS    PTCLDY    57  55  93 CALM      30.12F
HELENA         CLOUDY    66  54  65 W12G22    30.18R
MALMSTROM AFB  PTCLDY    61  52  72 SE5       30.13F
* CONRAD       MOCLDY    55  55 100 N/A        N/A
* DEARBORN     N/A       57  56  96 SW2        N/A
* EAST GLACIER N/A       52  48  86 W2         N/A
* MONARCH      N/A       57  46  67 S12        N/A
* SAINT MARY   N/A       48  47  96 SE2        N/A
* SWEET GRASS  N/A       63  56  78 S12G17     N/A
* WHITE SULPH  N/A       57  52  83 S2G7       N/A
$$

MTZ011-013-016-021-035-040-045-047-050-051-231200-
NORTH CENTRAL MONTANA
CITY           SKY/WX    TMP DP  RH WIND       PRES   REMARKS
HAVRE          PTCLDY    61  52  72 NE14      30.13R
LEWISTOWN      MOCLDY    61  54  78 SE6       30.19F
* FORT BENTON  CLEAR     66  54  65 NE7       30.10F
* CHESTER      N/A       63  52  68 E1         N/A
* DENTON       N/A       62  55  78 SE8        N/A
* GEYSER       N/A       59  52  78 NW4        N/A
* JUDITH GAP   N/A       56  55  96 N/A        N/A
* LOMA         N/A       67  54  63 NE13       N/A
$$

MTZ017>020-022>027-061-062-231200-
NORTHEAST MONTANA
CITY           SKY/WX    TMP DP  RH WIND       PRES   REMARKS
GLASGOW        MOCLDY    61  55  81 SE7       30.19R
GLENDIVE       CLEAR     61  57  87 NE6       30.22S
JORDAN         PTCLDY    61  54  78 E3        30.18S
SIDNEY         PTCLDY    61  57  87 N5        30.22F
WOLF POINT     FOG       59  55  87 E5        30.20R
* BEAVER HILL  N/A       61  59  93 SE9        N/A
* CIRCLE       N/A       62  59  90 N/A        N/A
* LINDSAY DVD  N/A       59  58  97 NE6        N/A
* NAVAJO       N/A       58  57  96 N3         N/A
$$

MTZ028>042-056>058-231200-
SOUTHCENTRAL AND SOUTHEAST MONTANA
CITY           SKY/WX    TMP DP  RH WIND       PRES   REMARKS
BAKER          CLEAR     57  55  93 E5        30.23S
BILLINGS       MOCLDY    63  57  81 N6        30.18S
LIVINGSTON     MOCLDY    57  52  83 CALM      30.21F
MILES CITY     CLEAR     63  61  93 N7        30.18F
* LAUREL APT   MOCLDY    61  55  81 N/A        N/A
* ROUNDUP APT  MOCLDY    61  55  81 N/A        N/A
* ALZADA       N/A       62  59  90 N3         N/A
* HYSHAM       N/A       60  58  93 E1         N/A
* LAME DEER    N/A       65  56  73 S11G17     N/A
* REED POINT   N/A       55  54  96 W3         N/A
* ROSCOE HILL  N/A       60  41  50 SW2        N/A
$$

REGIONAL REPORTS...DAKOTAS
CITY           SKY/WX    TMP DP  RH WIND       PRES   REMARKS
WILLISTON      CLEAR     64  63  97 E5        30.22S
DICKINSON      CLEAR     61  57  87 E9        30.23S
CROSBY         N/A       59  59 100 E8        30.26S
TIOGA          CLEAR     55  55 100 E7        30.28S
WATFORD CITY   FOG       63  63 100 SE9       30.21S
BISMARCK       CLOUDY    64  61  90 E8        30.26S
GRAND FORKS    MOCLDY    59  57  93 N3        30.28S
FARGO          PTCLDY    57  55  93 CALM      30.27S
BUFFALO SD     CLEAR     61  57  87 NE5       30.17R
RAPID CITY     PTCLDY    66  57  73 SW8       30.25F
$$

REGIONAL REPORTS...WYOMING/IDAHO/WASHINGTON
CITY           SKY/WX    TMP DP  RH WIND       PRES   REMARKS
GILLETTE       CLEAR     64  55  73 SE14      30.27F
SHERIDAN       CLEAR     68  55  63 SE15      30.20F
CODY           PTCLDY    61  45  56 CALM      30.23F
YELLOWSTONE LA PTCLDY    46  41  83 VRB3      30.43R
SALMON         MOCLDY    63  52  68 CALM      30.22R
MULLAN PASS    CLOUDY    50  46  86 S7        30.27S
SAND POINT     CLOUDY    61  54  78 NE9       30.10F
SPOKANE        CLOUDY    63  54  73 CALM      30.09R
$$

REGIONAL REPORTS...ALBERTA
CITY           SKY/WX    TMP DP  RH WIND       PRES   REMARKS
CALGARY        PTCLDY    55  46  72 S10       30.09S
LETHBRIDGE     CLOUDY    57  52  83 SW3       30.11S
MEDICINE HAT   CLEAR     66  52  61 SW6       30.10F
EDMONTON       MOCLDY    57  55  93 E8        30.01F
WATERTON GATE  N/A       54  45  72 N2         N/A
CARDSTON       N/A       55  50  83 N2         N/A
MILK RIVER     N/A       54  50  86 SW3        N/A
$$

REGIONAL REPORTS...SASKATCHEWAN
CITY           SKY/WX    TMP DP  RH WIND       PRES   REMARKS
SWIFT CURRENT  CLEAR     59  57  93 SE10G17   30.19S
MOOSE JAW      FOG       57  55  93 SE2       30.26R
REGINA         FAIR      61  52  72 E12       30.27S
VAL MARIE      N/A       59  55  87 E8         N/A
ASSINIBOIA     N/A       57  55  93 E7         N/A
CORONACH       N/A       61  57  87 E3         N/A

$$



USA.gov is the U.S. government's official web portal to all federal, state and local government web resources and services.